User: anonymous   Login
Location: DARK SKY Beskydy - Park tmavé oblohy, www.darkskybeskydy.cz
(49.4926°N, 18.5016°E)
Time: 13:19:55
(UTC+01:00)
Language:

Envisat - Orbit

View from above orbital plane
View from above orbital plane
View from above satellite
View from above satellite

Ground track
Ground track

The orbit data is extracted from the following two-line orbital elements,

1 27386U 02009A   24064.90082376  .00000225  00000-0  87300-4 0  9999
2 27386  98.2696  29.6897 0001364  89.5533 331.9907 14.38512967153519
Epoch (UTC): 04 March 2024 21:37:11
Eccentricity: 0.0001364
inclination: 98.2696°
perigee height: 762 km
apogee height: 764 km
right ascension of ascending node: 29.6897°
argument of perigee: 89.5533°
revolutions per day: 14.38512967
mean anomaly at epoch: 331.9907°
orbit number at epoch: 15351

The dashed part of the orbit path shows where the satellite is in the earth's shadow,  

DLR